sat.trackr.live / text

‹ back to catalog

STARLINK-5866

NORAD 57233 · 2023-094R

PAYLOAD ACTIVE UNKNOWN

§ Identity

Operator
Country
US
Launch date
2023-07-07
Launch site
AFWTR
Launch vehicle
Mass (kg)
RCS (m²)

Purposes: comms

External: N2YO · Heavens-Above · Gunter

§ Orbital elements

Epoch: 2026-09-19T14:45:38.880576Z

Period
94.27 min
Inclination
43.0031°
Eccentricity
0.0001287
Mean motion
15.27571845 rev/d
Perigee alt
482.2 km
Apogee alt
484.0 km
Semi-major
6,861.2 km
B*
-8.2968e-6
RAAN
15.5461°
Arg perigee
271.6754°
Mean anomaly
88.3950°
Rev number
17,677

§ Raw data

STARLINK-58661 57233U 23094R   26262.61503334 -.00000490  00000+0 -82968-5 0  99932 57233  43.0031  15.5461 0001287 271.6754  88.3950 15.27571845176771

JSON: /api/v1/satellites/57233 · /tle

For live sub-satellite position, see the globe view (requires WebGL).

§ Visibility from observer

Set your observer location to see the next 7 days of passes ≥ 10°. The values pass through the URL so the page stays shareable.

No JS? Fill the form by hand. The geolocation button needs JavaScript.